Weather History for Fort Indiantown Gap, PA

Change the Weather History Date:

Monday, February 11, 2013

  Actual Average Record
Temperature  
Mean Temperature 38 °F -  
Max Temperature 44 °F 40 °F 61 °F (2009)
Min Temperature 31 °F 25 °F 2 °F (2011)
Degree Days  
Heating Degree Days 28    
Moisture  
Dew Point 33 °F    
Average Humidity 94    
Maximum Humidity 100    
Minimum Humidity 53    
Precipitation  
Precipitation 0.19 in - - ()
Sea Level Pressure  
Sea Level Pressure 29.94 in    
Wind  
Wind Speed 2 mph (NNW)    
Max Wind Speed 21 mph    
Max Gust Speed 30 mph    
Visibility 4 miles    
Events Fog , Rain    
Averages and records for this station are not official NWS values.
T = Trace of Precipitation, MM = Missing Value Source: NWS Daily Summary

Daily Weather History Graph

Daily Weather History Graph

Search for Another Location

Airport:

Trip Planner

Search our weather history database for the weather conditions in past years. The results will help you decide how hot, cold, wet, or windy it might be!

Date:

Astronomy

Feb. 11, 2013 Rise Set
Actual Time 7:04 AM EST 5:37 PM EST
Civil Twilight 6:36 AM EST 6:05 PM EST
Nautical Twilight 6:04 AM EST 6:37 PM EST
Astronomical Twilight 5:32 AM EST 7:09 PM EST
Moon 7:27 AM EST (2/11) 7:32 PM EST (2/11)
Length of Visible Light 11h 28m
Length of Day
10h 32m
Waxing Crescent, 3% of the Moon is Illuminated
Feb 11
Waxing Crescent
Feb 17
First Quarter
Feb 25
Full
Mar 4
Last Quarter
Mar 11
New

Hourly Weather History & Observations

Time (EST) Temp. Windchill Dew Point Humidity Pressure Visibility Wind Dir Wind Speed Gust Speed Precip Events Conditions
12:07 AM 33.8 °F - 21.2 °F 60% 30.26 in 10.0 mi Calm Calm - N/A Rain Light Rain
12:34 AM 32.0 °F 28.7 °F 24.8 °F 75% 30.24 in 10.0 mi NNE 3.5 mph - N/A   Scattered Clouds
12:55 AM 32.4 °F - 24.3 °F 72% 30.25 in 10.0 mi Calm Calm - 0.00 in   Clear
1:55 AM 32.0 °F 27.5 °F 25.3 °F 76% 30.21 in 10.0 mi NE 4.6 mph - N/A   Clear
2:49 AM 32.0 °F - 26.6 °F 80% 30.19 in 10.0 mi Calm Calm - N/A   Overcast
2:55 AM 32.5 °F - 26.8 °F 79% 30.18 in 10.0 mi Calm Calm - 0.00 in Rain Light Rain
3:21 AM 32.0 °F - 30.2 °F 93% 30.17 in 5.0 mi Calm Calm - N/A Rain Light Rain
3:55 AM 31.8 °F 28.5 °F 31.8 °F 100% 30.14 in 6.0 mi ESE 3.5 mph - 0.04 in   Overcast
4:03 AM 32.0 °F 28.7 °F 32.0 °F 100% 30.14 in 5.0 mi East 3.5 mph - N/A   Overcast
4:28 AM 32.0 °F - 32.0 °F 100% 30.13 in 4.0 mi Calm Calm - N/A   Overcast
4:32 AM 32.0 °F - 32.0 °F 100% 30.13 in 4.0 mi Calm Calm - N/A   Overcast
4:35 AM 32.0 °F - 32.0 °F 100% 30.13 in 4.0 mi Calm Calm - N/A   Overcast
4:40 AM 32.0 °F - 32.0 °F 100% 30.12 in 4.0 mi Calm Calm - N/A   Overcast
4:55 AM 31.8 °F 28.5 °F 31.8 °F 100% 30.12 in 5.0 mi ENE 3.5 mph - 0.04 in   Overcast
5:36 AM 32.0 °F - 32.0 °F 100% 30.09 in 2.5 mi Calm Calm - N/A Rain Light Rain
5:47 AM 32.0 °F 28.7 °F 32.0 °F 100% 30.07 in 2.5 mi ENE 3.5 mph - N/A Rain Light Rain
5:48 AM 32.0 °F 28.7 °F 32.0 °F 100% 30.07 in 3.0 mi ENE 3.5 mph - N/A Rain Light Rain
5:55 AM 32.2 °F - 32.2 °F 100% 30.07 in 4.0 mi Calm Calm - 0.04 in Rain Light Rain
6:12 AM 32.0 °F - 32.0 °F 100% 30.06 in 2.5 mi Calm Calm - N/A   Light Drizzle
6:30 AM 32.0 °F - 32.0 °F 100% 30.06 in 3.0 mi Calm Calm - N/A   Light Drizzle
6:40 AM 32.0 °F - 32.0 °F 100% 30.06 in 2.5 mi Calm Calm - N/A   Light Drizzle
6:55 AM 32.4 °F 29.1 °F 32.4 °F 100% 30.06 in 2.0 mi NNE 3.5 mph - 0.04 in Rain Light Rain
7:06 AM 32.0 °F - 32.0 °F 100% 30.05 in 1.8 mi Calm Calm - N/A Rain Light Rain
7:11 AM 32.0 °F 28.7 °F 32.0 °F 100% 30.05 in 1.5 mi NNE 3.5 mph - N/A Rain Light Rain
7:14 AM 32.0 °F - 32.0 °F 100% 30.04 in 1.2 mi Calm Calm - N/A Rain Light Rain
7:18 AM 32.0 °F - 32.0 °F 100% 30.04 in 1.0 mi Calm Calm - N/A Rain Light Rain
7:24 AM 32.0 °F - 32.0 °F 100% 30.04 in 1.2 mi Calm Calm - N/A   Light Drizzle
7:27 AM 32.0 °F - 32.0 °F 100% 30.04 in 1.5 mi Calm Calm - N/A   Light Drizzle
7:29 AM 32.0 °F - 32.0 °F 100% 30.04 in 1.8 mi Calm Calm - N/A   Light Drizzle
7:31 AM 32.0 °F - 32.0 °F 100% 30.04 in 2.0 mi Calm Calm - N/A   Light Drizzle
7:35 AM 32.0 °F - 32.0 °F 100% 30.04 in 2.5 mi Calm Calm - N/A   Overcast
7:55 AM 32.4 °F - 32.4 °F 100% 30.03 in 2.5 mi Calm Calm - 0.02 in   Overcast
8:27 AM 32.0 °F - 32.0 °F 100% 30.01 in 1.8 mi Calm Calm - N/A   Overcast
8:31 AM 32.0 °F - 32.0 °F 100% 30.01 in 1.5 mi Calm Calm - N/A   Overcast
8:32 AM 32.0 °F - 32.0 °F 100% 30.01 in 1.2 mi Calm Calm - N/A   Overcast
8:34 AM 32.0 °F - 32.0 °F 100% 30.01 in 1.0 mi Calm Calm - N/A   Mist
8:42 AM 32.0 °F - 32.0 °F 100% 30.01 in 1.2 mi Calm Calm - N/A   Overcast
8:44 AM 32.0 °F - 32.0 °F 100% 30.01 in 1.5 mi Calm Calm - N/A   Overcast
8:55 AM 32.5 °F - 32.5 °F 100% 30.01 in 1.2 mi Calm Calm - N/A   Overcast
9:05 AM 32.0 °F 28.7 °F 32.0 °F 100% 30.00 in 1.2 mi NNE 3.5 mph - N/A   Overcast
9:08 AM 32.0 °F - 32.0 °F 100% 29.99 in 1.0 mi Calm Calm - N/A   Light Drizzle
9:11 AM 32.0 °F - 32.0 °F 100% 29.99 in 0.8 mi Calm Calm - N/A   Light Drizzle
9:15 AM 32.0 °F - 32.0 °F 100% 29.99 in 1.0 mi Calm Calm - N/A   Mist
9:19 AM 32.0 °F - 32.0 °F 100% 30.00 in 1.2 mi Calm Calm - N/A   Overcast
9:31 AM 32.0 °F 28.7 °F 32.0 °F 100% 29.99 in 1.2 mi North 3.5 mph - N/A   Light Drizzle
9:33 AM 32.0 °F 28.7 °F 32.0 °F 100% 29.98 in 1.0 mi North 3.5 mph - N/A   Light Drizzle
9:41 AM 32.0 °F - 32.0 °F 100% 29.99 in 1.0 mi Calm Calm - N/A   Mist
9:55 AM 33.1 °F - 33.1 °F 100% 29.98 in 1.0 mi Calm Calm - 0.00 in   Mist
9:58 AM 33.8 °F - 33.8 °F 100% 29.98 in 0.8 mi Calm Calm - N/A   Mist
10:11 AM 33.8 °F 30.8 °F 33.8 °F 100% 29.96 in 0.5 mi ENE 3.5 mph - N/A Fog Fog
10:55 AM 34.5 °F - 34.5 °F 100% 29.94 in 0.5 mi Calm Calm - N/A Fog Fog
11:16 AM 35.6 °F - 35.6 °F 100% 29.93 in 0.2 mi Calm Calm - N/A Fog Fog
11:55 AM 35.6 °F 32.8 °F 35.6 °F 100% 29.88 in 0.2 mi ENE 3.5 mph - N/A Fog Fog
12:55 PM 36.7 °F - 36.7 °F 100% 29.83 in 0.2 mi Calm Calm - N/A Fog Fog
1:55 PM 37.8 °F - 37.8 °F 100% 29.79 in 0.2 mi Calm Calm - N/A Fog Fog
2:55 PM 38.1 °F - 38.1 °F 100% 29.76 in 0.2 mi Calm Calm - N/A Fog Fog
3:55 PM 38.3 °F - 38.3 °F 100% 29.74 in 0.2 mi Calm Calm - N/A Fog Fog
4:55 PM 38.5 °F - 38.5 °F 100% 29.72 in 0.2 mi Calm Calm - N/A Fog Fog
5:55 PM 38.1 °F - 38.1 °F 100% 29.70 in 0.2 mi Calm Calm - N/A Fog Fog
6:55 PM 37.8 °F - 37.8 °F 100% 29.70 in 0.2 mi Calm Calm - N/A Fog Fog
7:19 PM 37.4 °F - 37.4 °F 100% 29.70 in 0.5 mi Calm Calm - N/A Fog Fog
7:26 PM 37.4 °F - 37.4 °F 100% 29.70 in 0.2 mi Calm Calm - N/A Fog Fog
7:32 PM 37.4 °F - 37.4 °F 100% 29.70 in 0.5 mi Calm Calm - N/A Fog Fog
7:47 PM 37.4 °F - 37.4 °F 100% 29.70 in 0.2 mi Calm Calm - N/A Fog Fog
7:55 PM 37.9 °F - 37.9 °F 100% 29.70 in 0.2 mi Calm Calm - N/A Fog Fog
8:00 PM 37.4 °F - 37.4 °F 100% 29.70 in 0.5 mi Calm Calm - N/A Fog Fog
8:20 PM 39.2 °F 30.8 °F 39.2 °F 100% 29.73 in 0.8 mi NW 15.0 mph 21.9 mph N/A   Mist
8:23 PM 41.0 °F 34.7 °F 41.0 °F 100% 29.73 in 1.0 mi WNW 10.4 mph 21.9 mph N/A   Mostly Cloudy
8:24 PM 42.8 °F 36.2 °F 42.8 °F 100% 29.73 in 1.5 mi NW 12.7 mph 21.9 mph N/A   Mostly Cloudy
8:25 PM 42.8 °F 35.8 °F 42.8 °F 100% 29.73 in 2.0 mi WNW 13.8 mph 21.9 mph N/A   Mostly Cloudy
8:26 PM 42.8 °F 36.6 °F 42.8 °F 100% 29.73 in 3.0 mi NW 11.5 mph 21.9 mph N/A   Mostly Cloudy
8:29 PM 42.8 °F 36.6 °F 42.8 °F 100% 29.73 in 9.0 mi NW 11.5 mph 21.9 mph N/A   Mostly Cloudy
8:32 PM 42.8 °F 37.5 °F 42.8 °F 100% 29.73 in 10.0 mi NW 9.2 mph 20.7 mph N/A   Scattered Clouds
8:55 PM 43.5 °F 36.4 °F 43.5 °F 100% 29.73 in 10.0 mi NW 15.0 mph 23.0 mph 0.01 in   Clear
9:55 PM 44.8 °F 36.6 °F 38.8 °F 80% 29.76 in 10.0 mi WNW 20.7 mph 29.9 mph N/A   Clear
10:35 PM 44.6 °F 36.9 °F 33.8 °F 66% 29.78 in 10.0 mi West 18.4 mph 27.6 mph N/A   Clear
10:45 PM 44.6 °F 37.2 °F 33.8 °F 66% 29.78 in 10.0 mi WNW 17.3 mph 26.5 mph N/A   Clear
10:55 PM 43.5 °F 35.5 °F 30.9 °F 61% 29.78 in 10.0 mi WNW 18.4 mph 27.6 mph 0.00 in   Clear
10:57 PM 42.8 °F 36.2 °F 30.2 °F 61% 29.79 in 10.0 mi WNW 12.7 mph 27.6 mph N/A   Clear
11:06 PM 42.8 °F 34.8 °F 28.4 °F 57% 29.79 in 10.0 mi West 17.3 mph 24.2 mph N/A   Clear
11:08 PM 42.8 °F 34.3 °F 28.4 °F 57% 29.79 in 10.0 mi West 19.6 mph 27.6 mph N/A   Clear
11:36 PM 42.8 °F 35.4 °F 26.6 °F 53% 29.79 in 10.0 mi West 15.0 mph 28.8 mph N/A   Clear
11:55 PM 41.9 °F 34.3 °F 27.3 °F 56% 29.80 in 10.0 mi West 15.0 mph 19.6 mph 0.00 in   Partly Cloudy